Location: Sortland
(68.7020°N, 15.4240°E)
Time: 21:24:32
(UTC+01:00)

Envisat - Pass Details

Date: 24 October 2019
Orbit: 764 x 766 km, 98.1° (Epoch: 20 November)

Event Time Altitude Azimuth Distance (km) Brightness Sun altitude
Rises 20:27:31 0° 215° (SW) 3,235 6.4 -20.4°
Reaches altitude 10° 20:30:24 10° 231° (SW) 2,312 5.8 -20.6°
Maximum altitude 20:34:11 21° 279° (W) 1,702 5.6 -21.0°
Drops below altitude 10° 20:37:59 10° 327° (NNW) 2,320 6.3 -21.3°
Sets 20:40:53 0° 344° (NNW) 3,251 6.8 -21.5°
